sat.trackr.live / text

‹ back to catalog

STARLINK-1994

NORAD 47589 · 2021-009AT

PAYLOAD ACTIVE UNKNOWN

§ Identity

Operator
Country
US
Launch date
2021-02-04
Launch site
AFETR
Launch vehicle
Mass (kg)
RCS (m²)

Purposes: comms

External: N2YO · Heavens-Above · Gunter

§ Orbital elements

Epoch: 2026-08-06T16:59:29.517792Z

Period
88.29 min
Inclination
53.0230°
Eccentricity
0.0012059
Mean motion
16.30951370 rev/d
Perigee alt
182.1 km
Apogee alt
197.9 km
Semi-major
6,568.1 km
B*
9.1566e-4
RAAN
333.0558°
Arg perigee
318.9460°
Mean anomaly
41.0674°
Rev number
30,473

§ Raw data

STARLINK-19941 47589U 21009AT  26218.70798053  .04806434  12162-4  91566-3 0  99982 47589  53.0230 333.0558 0012059 318.9460  41.0674 16.30951370304737

JSON: /api/v1/satellites/47589 · /tle

For live sub-satellite position, see the globe view (requires WebGL).

§ Visibility from observer

Set your observer location to see the next 7 days of passes ≥ 10°. The values pass through the URL so the page stays shareable.

No JS? Fill the form by hand. The geolocation button needs JavaScript.